Theta_e
326 327 327 328 328 326 326 324 324 324 324 325 323 321 326 325 325 331 344 346 344 347 349 348 347 347 346 348 348 347 350 351 349 348 350 349 350 351 352 351 351 351 352 354 355 355 355 353 351 352 351 348 352 354 354 354 355 355 355 355 356 354 353 354 353 351 348 349 351 348 347 347 347 346 347 347 347 347 347 348 349 349 349 349 351 353 353
325 326 326 327 326 325 326 327 326 325 324 323 325 325 325 326 331 340 345 343 344 346 346 347 349 349 350 350 348 347 349 351 349 348 349 350 350 351 351 351 350 348 349 350 351 353 355 355 354 355 355 354 356 357 356 356 355 355 356 357 357 355 353 353 353 353 350 349 350 349 348 348 348 347 346 345 346 346 346 347 347 347 347 347 347 348 349
323 326 325 325 326 325 324 324 326 328 326 323 323 325 326 327 334 342 345 344 346 345 346 350 350 350 350 349 348 349 350 350 349 350 350 350 350 350 351 351 351 349 348 346 345 347 350 351 352 354 356 356 356 356 357 355 353 352 354 355 352 350 352 353 352 351 352 353 352 352 353 353 351 350 349 348 348 347 346 346 346 346 346 346 346 346 346
321 325 325 324 325 324 321 323 329 332 329 327 330 335 336 334 336 339 341 343 345 346 347 351 350 350 350 349 350 349 349 350 350 350 350 350 349 349 349 350 350 352 351 348 347 348 347 347 347 348 353 355 355 355 356 355 352 349 350 349 345 345 350 351 350 349 351 353 354 355 355 353 352 352 350 349 350 349 348 348 347 347 348 349 348 347 347
320 323 325 325 323 321 321 327 333 334 333 334 337 339 341 340 339 339 339 342 346 348 348 348 349 349 349 349 350 348 348 349 348 348 348 347 347 347 348 349 350 352 353 353 352 352 352 352 349 346 348 350 352 353 353 353 350 349 351 349 345 345 349 348 350 353 350 347 350 355 355 352 351 350 347 347 349 349 349 349 349 349 350 350 349 348 348
320 323 326 324 320 320 324 332 335 335 335 338 339 340 340 341 341 340 342 345 347 347 348 348 348 348 348 349 349 348 348 347 346 346 345 344 344 344 345 346 349 350 351 352 353 354 354 354 352 349 348 348 349 350 350 350 350 350 352 352 348 349 349 347 350 353 350 345 345 350 351 350 350 348 346 346 346 346 347 348 349 350 351 350 349 347 348
321 323 323 321 321 325 331 334 333 335 336 337 340 342 342 342 343 342 343 345 346 346 348 348 347 347 347 348 347 347 346 345 345 344 343 343 343 342 342 344 346 347 348 350 351 352 353 353 352 352 351 350 350 349 349 349 350 351 351 350 350 350 350 349 350 351 351 350 348 347 349 349 349 348 348 347 346 346 346 346 347 349 349 349 349 349 350
323 322 322 323 326 330 333 333 331 334 336 336 338 340 341 342 343 342 343 343 344 347 347 347 347 347 346 346 346 345 345 344 344 343 343 342 341 340 341 342 343 344 346 347 348 350 350 351 351 352 352 351 350 350 348 348 350 350 351 350 351 352 352 352 352 351 351 350 347 347 348 348 349 350 351 350 349 349 349 347 348 349 348 347 347 348 350
322 321 322 327 330 331 333 334 334 333 335 337 338 338 341 342 341 343 344 343 343 346 346 346 346 346 345 345 345 344 344 343 342 342 341 340 340 340 339 339 341 343 344 344 345 346 347 348 348 350 350 350 350 349 349 349 348 349 349 349 350 351 352 351 350 349 348 347 345 347 347 348 349 349 350 349 349 350 349 349 349 349 349 349 348 348 351
323 322 322 325 328 330 332 333 332 331 333 336 337 338 339 341 342 342 343 344 344 345 345 345 344 344 345 345 343 343 342 342 341 341 340 339 339 339 338 338 339 339 340 341 342 342 343 343 344 345 346 347 348 348 347 348 347 346 347 347 347 347 348 347 347 347 347 346 346 346 345 345 346 346 346 346 348 349 350 350 350 350 350 351 351 351 351
322 321 321 323 326 329 332 332 330 331 333 334 336 337 336 339 342 342 342 343 345 344 344 345 344 345 345 344 343 342 341 341 340 339 340 339 338 338 337 337 336 336 337 337 337 339 340 340 340 341 341 343 344 345 345 345 345 345 345 345 345 346 346 345 346 346 346 346 347 346 345 346 346 347 346 346 347 349 349 349 349 349 349 349 349 349 349
321 320 321 325 329 331 332 331 330 331 331 332 335 335 334 337 342 341 339 341 343 343 343 343 343 344 345 344 342 339 339 339 338 338 337 337 336 336 336 335 334 333 334 334 333 334 336 337 338 339 339 340 341 342 343 343 343 343 342 342 343 343 343 343 343 343 343 343 344 344 345 345 345 345 346 345 346 347 346 345 345 344 343 342 342 344 345
319 319 319 325 331 332 330 331 331 331 331 333 334 333 334 337 341 339 337 339 341 341 342 342 341 342 343 343 340 338 336 335 334 334 334 333 332 332 333 333 332 331 331 331 331 331 332 333 335 336 338 339 339 339 340 340 340 339 339 339 339 339 339 339 339 339 339 340 341 341 341 342 342 342 341 341 342 342 341 341 341 340 340 341 342 343 344
321 322 321 325 330 331 329 331 332 332 333 334 334 334 336 339 340 339 337 337 337 337 338 339 339 341 342 341 338 335 333 332 331 331 330 330 331 331 332 331 329 328 328 328 328 329 330 330 330 331 334 336 337 337 337 336 335 333 332 332 332 333 334 335 336 336 336 337 338 338 337 338 338 337 335 334 334 335 335 335 334 333 334 336 337 336 337
326 325 324 326 329 331 330 332 334 334 334 335 336 337 339 339 338 337 337 338 337 336 337 338 338 339 340 339 337 333 331 330 329 328 328 329 330 330 328 327 327 326 327 327 326 327 327 324 323 322 324 326 329 330 331 330 327 324 324 324 324 325 327 330 331 332 332 331 331 330 331 331 330 329 328 326 325 327 328 327 328 327 326 327 327 326 327
330 328 327 328 329 329 329 332 334 333 335 337 338 338 339 340 338 336 336 337 337 337 338 338 337 337 337 336 335 333 331 330 329 328 329 329 328 327 326 326 327 327 328 328 327 325 320 315 313 315 316 317 319 320 322 322 321 320 320 319 320 320 321 323 323 323 325 324 321 321 323 323 321 321 322 323 322 322 322 323 325 325 323 324 325 324 323
331 330 330 330 330 328 329 332 334 334 335 337 337 337 339 340 340 338 336 335 336 336 337 337 337 337 335 334 333 332 331 331 329 328 328 328 327 326 326 327 328 327 326 324 322 319 314 309 308 310 310 312 313 313 314 315 316 316 317 316 316 316 317 319 320 321 323 325 324 325 325 324 323 322 323 325 324 323 322 323 325 324 325 327 329 328 328
329 330 330 330 330 329 329 331 333 334 335 336 336 337 338 340 340 339 337 336 335 335 335 336 336 336 335 334 333 332 332 330 328 328 328 326 326 326 326 326 325 321 317 314 312 312 311 309 308 308 308 309 309 308 308 310 311 313 313 312 311 311 313 318 321 324 327 328 328 329 329 329 328 329 330 330 328 327 328 329 326 323 324 326 328 329 330
328 329 330 330 330 330 330 331 333 333 334 336 336 337 338 339 340 340 339 337 336 335 335 336 336 336 335 334 333 332 331 329 328 328 328 326 326 326 325 324 320 316 313 312 311 311 311 310 309 308 307 307 307 308 310 309 308 309 309 308 308 309 312 317 323 327 330 329 324 322 325 328 329 329 331 330 326 327 332 332 328 326 326 327 327 328 328
328 329 329 329 329 329 330 330 331 333 334 334 335 335 336 337 337 337 338 337 337 336 335 335 335 335 334 333 333 332 330 330 329 329 328 327 326 323 321 321 319 316 315 315 313 312 312 311 309 308 307 310 314 320 322 316 308 307 308 307 308 310 315 320 323 324 325 324 320 318 323 328 329 329 330 329 326 326 330 329 328 329 329 328 327 329 329
327 327 327 328 328 329 329 330 330 331 332 333 333 333 335 336 335 336 336 336 336 337 336 335 334 334 334 333 332 331 331 330 330 329 329 326 322 318 318 320 320 317 316 314 313 312 311 310 309 308 308 310 313 318 320 314 307 308 309 308 310 312 315 317 316 312 315 323 326 324 322 323 327 328 329 328 326 327 327 327 327 329 328 325 324 325 325
327 327 328 329 329 329 329 329 330 329 330 331 331 332 334 335 335 335 336 335 335 335 334 334 335 335 335 334 332 332 331 330 330 329 327 324 319 316 318 320 319 317 315 315 314 313 312 311 310 309 308 308 308 308 309 307 307 307 307 308 314 318 319 318 316 314 318 324 329 328 324 323 325 326 327 327 327 327 327 327 326 327 327 325 323 321 320
327 328 328 329 330 330 330 330 330 329 329 330 330 331 332 333 334 335 335 336 335 334 333 333 334 334 335 333 333 333 331 330 329 328 326 324 321 318 318 319 318 316 316 315 314 314 313 312 311 310 309 309 309 307 307 307 306 305 308 315 321 324 326 325 323 324 325 325 324 327 328 327 324 322 322 324 324 324 325 325 322 320 320 320 319 317 316
329 328 328 328 328 329 329 329 329 329 329 329 329 329 330 331 333 335 335 335 335 335 334 333 332 333 333 332 333 334 332 330 329 328 328 328 326 322 321 322 320 316 315 315 314 314 314 312 312 311 311 310 309 308 307 307 306 309 317 324 326 325 325 324 322 324 326 324 321 323 326 326 322 318 318 320 320 318 320 321 318 314 313 313 312 312 311
329 330 328 327 327 327 328 328 328 329 329 329 329 329 329 329 331 332 333 333 334 334 334 334 333 332 333 332 332 334 333 332 331 330 330 331 330 326 326 327 323 318 316 315 314 313 314 313 313 313 313 312 312 310 308 307 306 310 318 325 325 321 318 315 314 317 319 317 316 316 318 320 320 319 320 323 323 322 322 322 319 318 318 317 316 315 314
328 328 327 327 327 327 327 328 328 329 329 329 329 329 329 329 329 330 330 331 332 333 333 333 333 333 333 332 332 333 333 333 332 331 332 332 331 329 328 328 326 321 317 316 315 314 314 314 314 314 314 313 313 312 310 309 307 307 312 317 317 314 311 309 309 310 309 309 311 312 311 314 318 320 322 324 324 325 325 323 321 320 321 320 319 319 318
328 328 327 328 329 329 329 328 328 327 327 328 328 328 328 329 328 329 329 329 330 330 330 331 332 332 332 332 332 332 332 332 332 332 332 332 331 330 328 328 328 324 319 316 315 314 315 315 315 315 315 314 314 313 313 312 311 310 310 311 310 308 308 307 309 311 312 313 316 314 310 311 316 320 322 323 323 324 324 323 322 322 322 321 321 320 320
328 328 328 328 329 329 328 328 327 326 326 326 326 326 327 327 327 328 328 329 329 329 329 329 330 331 331 332 332 331 331 331 331 332 332 331 331 331 329 329 329 327 323 318 315 315 315 316 315 316 316 316 315 315 315 315 314 314 314 313 313 311 309 307 310 315 318 318 316 313 309 309 312 318 322 323 323 323 322 322 322 322 321 321 322 321 320
328 328 329 329 328 328 327 327 327 326 326 326 325 325 325 325 326 325 326 327 328 328 328 328 328 329 329 330 330 331 330 330 331 332 332 331 332 331 329 328 328 328 326 322 319 316 315 315 316 316 316 316 316 316 316 315 316 315 316 317 319 318 314 311 311 313 313 311 309 307 306 306 308 313 318 320 321 322 322 322 322 322 322 321 322 321 320
327 327 328 327 327 327 326 326 326 325 324 325 325 325 325 325 326 325 324 325 325 325 326 326 327 327 328 329 329 329 329 330 330 330 330 330 331 330 329 328 327 328 327 326 324 321 316 315 315 316 316 316 316 316 316 316 316 315 316 318 319 318 315 314 313 311 310 308 307 305 304 303 303 306 311 316 319 320 321 322 322 322 321 321 321 321 320
327 327 326 326 326 326 325 324 324 324 323 323 324 324 324 324 324 324 324 324 324 323 324 324 325 325 327 327 328 327 327 328 329 329 329 329 329 329 328 328 328 327 327 327 327 325 321 316 314 315 316 316 316 316 316 316 316 316 315 316 316 316 315 315 314 313 311 310 310 308 307 308 309 311 314 317 318 318 319 320 320 320 320 319 319 320 320
326 326 325 325 324 323 322 323 323 322 322 322 322 322 321 321 321 322 323 323 323 323 323 323 323 323 324 324 324 324 325 326 327 327 327 328 328 328 328 328 328 327 326 326 327 327 325 321 317 315 315 316 316 315 316 316 315 316 316 315 315 315 315 315 315 314 313 312 311 310 310 312 315 317 318 317 316 316 318 319 319 319 319 319 319 319 319
324 324 324 324 323 322 321 322 322 321 320 319 319 318 318 318 319 319 320 320 320 321 321 322 322 322 322 322 322 322 323 323 324 325 325 326 326 327 327 327 327 326 326 326 327 327 327 326 322 319 316 316 315 315 315 315 315 315 315 315 315 315 315 314 314 314 314 312 310 309 310 312 314 315 316 316 315 315 316 317 317 318 319 319 318 318 318
324 323 323 322 321 320 320 320 319 318 317 316 315 315 315 315 315 316 316 316 316 316 317 318 318 318 319 320 321 322 322 322 322 323 324 324 325 325 326 326 327 325 325 327 328 327 326 326 325 323 320 318 316 315 315 315 315 315 315 314 315 315 314 314 314 314 314 313 312 311 311 310 309 309 311 314 316 315 315 316 317 317 317 317 317 316 316
323 322 321 320 318 317 317 317 316 315 314 314 314 313 313 314 314 314 314 314 315 315 315 315 315 315 315 316 317 318 319 320 321 321 322 322 322 323 324 325 326 324 323 325 327 327 327 326 326 326 325 322 319 316 316 316 316 315 315 315 315 315 315 314 314 314 313 313 313 313 313 311 308 307 309 312 315 315 316 316 316 315 315 315 315 315 314
321 320 319 318 317 316 315 315 314 314 314 313 313 313 313 313 314 314 315 315 315 315 315 315 315 315 315 315 315 315 316 316 318 319 320 320 320 321 322 322 324 324 324 323 324 325 326 326 325 325 324 323 321 319 317 317 317 316 316 316 315 315 315 315 315 314 313 313 314 314 313 312 312 312 311 310 310 311 313 314 315 315 314 314 314 313 313
320 319 319 317 316 316 315 315 315 314 314 313 313 314 314 315 315 315 316 316 316 316 316 316 316 316 316 317 316 316 315 315 315 315 316 317 318 319 319 320 320 322 323 323 322 322 323 324 324 323 322 322 322 321 319 318 317 317 317 316 316 315 315 314 314 314 313 313 313 313 313 312 312 311 310 308 307 309 311 313 313 313 313 312 312 312 312
319 318 317 316 315 314 315 314 314 314 314 314 315 315 315 316 316 316 316 315 315 316 316 316 316 316 316 316 316 316 316 316 316 316 315 315 316 316 318 318 318 319 321 321 322 322 322 323 323 323 322 322 322 322 321 319 318 317 317 316 316 315 314 314 314 313 313 313 312 312 313 313 312 311 311 310 310 311 312 312 312 312 312 311 311 311 310
318 316 315 315 314 314 315 314 314 315 315 315 315 315 315 315 315 315 315 315 315 315 315 314 315 315 315 315 315 316 316 316 316 316 315 315 315 315 316 316 317 317 318 319 319 321 322 323 323 323 323 322 322 321 321 320 318 317 316 316 316 315 314 314 313 313 313 314 313 312 312 312 312 311 312 313 313 313 312 312 311 310 309 309 308 308 309
317 316 315 314 314 315 315 315 315 315 315 315 314 314 314 314 314 314 314 314 314 313 313 313 313 313 313 314 314 314 314 315 315 314 314 314 314 314 314 314 314 316 316 317 317 318 319 320 321 321 321 321 321 321 320 320 318 317 316 316 315 314 314 313 313 313 313 313 313 312 312 311 311 311 311 311 312 311 311 310 309 309 308 307 307 307 308
316 316 315 315 315 315 315 315 314 314 314 314 314 314 313 313 313 313 313 313 313 312 312 312 312 312 312 312 312 313 313 313 313 313 313 314 314 314 314 314 314 314 315 315 316 317 317 318 319 320 321 320 320 320 320 319 318 317 317 315 314 314 313 312 312 312 312 312 312 311 310 309 310 310 310 309 309 310 309 309 308 308 307 307 307 307 306
316 315 315 315 315 315 315 314 313 313 313 313 313 313 312 312 312 312 312 312 312 312 312 312 312 311 311 311 311 311 311 312 312 312 312 313 313 314 314 314 314 314 314 314 315 315 316 317 318 319 319 320 320 319 319 319 318 317 316 314 313 312 312 311 311 311 311 310 310 310 309 308 309 309 309 308 308 308 308 308 307 307 306 306 306 305 305
315 315 315 315 315 314 314 313 313 312 312 312 312 312 312 312 312 312 312 312 312 312 312 312 312 312 312 311 311 311 311 311 311 312 312 311 311 311 312 313 313 313 313 313 313 314 315 316 316 317 318 319 319 319 319 318 318 316 315 313 312 311 311 311 310 310 310 309 309 309 308 308 308 309 309 308 308 308 307 306 306 306 305 305 305 304 304
315 314 314 314 313 313 313 313 312 312 312 312 311 311 311 312 312 312 312 312 312 312 312 312 312 312 312 311 310 310 311 311 311 311 311 311 311 311 311 311 312 312 312 312 312 312 313 314 316 317 317 318 318 319 318 317 316 316 314 312 311 311 310 310 310 309 309 308 308 308 308 308 307 307 308 308 307 307 307 306 306 305 304 304 304 304 303
314 313 313 312 312 312 312 312 312 311 311 311 311 311 311 312 312 311 312 311 311 311 311 311 311 311 311 311 310 310 310 311 311 311 311 311 311 311 311 311 311 311 311 311 311 311 312 312 314 315 315 315 316 317 316 315 315 315 313 311 310 310 310 309 309 308 308 308 307 307 307 307 306 306 307 307 306 306 306 305 305 304 304 304 303 303 302
313 312 312 312 312 311 311 311 311 311 311 311 311 311 311 311 312 312 312 312 311 311 311 310 310 310 310 310 311 311 311 311 311 310 311 311 310 310 310 310 310 310 309 309 309 310 310 311 311 312 312 313 315 315 314 313 313 312 311 310 309 309 309 308 308 307 307 307 307 307 306 306 305 305 305 305 305 305 304 303 303 304 303 303 302 302 302
312 311 311 312 311 311 311 310 310 310 310 311 311 311 311 311 312 312 312 312 312 312 311 311 311 311 311 311 311 311 311 310 310 310 310 310 310 310 310 310 310 310 309 308 308 308 309 309 310 310 310 311 313 313 312 312 312 311 309 309 309 308 307 307 307 306 306 306 306 305 305 305 305 305 305 305 304 304 303 303 303 303 302 302 302 301 301
312 311 311 311 311 310 310 310 310 310 310 310 310 310 310 311 311 312 312 312 312 312 312 312 312 311 311 311 311 311 311 310 310 310 310 310 310 309 310 310 309 309 309 308 308 308 307 308 310 310 310 311 312 312 311 312 312 311 309 308 307 307 306 306 306 305 305 305 305 304 304 303 304 304 304 304 304 303 303 302 302 302 302 302 301 301 301
311 311 311 311 310 310 309 309 309 309 309 309 309 310 310 310 311 311 311 311 311 311 311 311 311 311 311 311 311 311 310 310 310 310 310 309 308 308 309 309 308 308 307 307 308 308 308 308 309 310 311 312 312 311 310 310 311 310 308 307 307 306 306 305 305 304 304 304 304 304 303 303 303 303 303 303 303 303 302 302 302 302 301 301 301 301 301
311 311 310 310 310 310 309 309 309 309 309 309 309 309 309 309 310 310 310 310 310 310 310 311 311 311 310 310 310 310 311 310 310 310 309 308 308 308 308 308 308 307 307 307 309 310 310 309 310 310 311 311 311 309 307 307 307 307 307 306 306 305 304 304 304 303 304 304 305 304 303 303 303 303 303 303 302 302 302 302 302 302 301 301 301 301 301
310 310 310 310 310 310 310 310 309 309 309 308 308 308 308 309 309 309 309 309 309 310 310 310 310 310 310 309 310 310 310 310 310 309 309 308 308 307 307 307 307 307 307 308 309 310 310 309 310 310 310 309 308 306 305 305 305 304 304 304 304 303 304 304 304 304 304 304 304 304 303 303 303 303 302 302 302 302 302 301 301 301 301 301 301 301 301
310 310 310 310 310 310 311 310 309 309 309 308 308 308 308 308 308 309 309 309 309 309 309 309 309 309 309 308 308 309 309 309 309 309 309 309 308 308 308 308 308 308 308 309 309 310 309 309 309 308 307 305 305 304 304 303 303 303 303 303 303 303 304 304 304 304 304 304 303 303 303 303 302 302 302 302 302 302 302 302 302 301 301 301 301 301 301
Wind_Speed
13 13 12 15 13 9 10 12 13 15 14 12 10 12 12 8 3 7 9 11 11 10 12 13 12 12 10 8 9 8 7 8 11 13 12 15 18 18 19 21 20 18 20 23 23 19 16 18 20 20 19 19 18 18 18 20 20 22 23 22 20 19 18 16 16 17 18 17 15 15 15 15 15 15 13 12 12 12 12 10 10 10 11 11 10 11 11
13 13 14 15 12 11 13 15 13 14 14 15 14 11 11 9 5 15 15 13 11 9 10 12 14 16 14 13 14 14 12 10 12 14 13 12 14 16 19 21 20 18 18 19 20 19 16 17 17 17 19 20 18 14 15 18 18 18 21 22 21 19 17 16 14 14 16 17 17 17 16 16 15 15 14 11 11 11 11 11 11 11 11 11 11 10 11
11 12 13 14 14 14 14 16 13 6 9 15 12 7 7 8 5 18 18 13 11 9 11 15 16 17 14 11 12 12 11 10 12 14 14 12 12 13 17 20 19 19 19 19 19 19 17 16 15 15 16 17 16 13 14 18 20 18 18 19 19 17 17 16 15 13 13 15 18 18 17 16 15 15 15 12 11 12 13 13 13 12 11 11 10 10 11
7 9 13 14 15 14 13 13 10 11 7 4 4 6 9 12 3 14 16 10 8 9 13 17 17 16 14 12 12 10 9 9 11 14 15 13 13 13 13 16 17 16 18 20 19 19 18 17 16 15 13 13 14 14 14 16 17 17 17 18 19 19 19 17 15 13 13 13 13 13 15 16 16 17 18 17 16 16 16 16 16 15 13 13 13 13 12
6 9 11 11 12 11 8 5 10 14 11 10 12 12 14 18 11 8 9 6 9 11 13 14 13 13 13 13 13 12 10 11 12 14 15 13 12 11 11 14 16 16 17 18 18 18 16 15 16 18 16 14 14 13 13 13 14 16 17 18 18 19 20 20 17 14 15 18 15 11 12 14 14 15 17 17 17 17 14 14 15 16 15 15 17 17 15
6 7 8 9 8 6 2 5 10 11 10 11 12 11 13 15 11 7 8 9 12 12 11 11 11 13 14 13 14 14 13 13 13 12 12 11 10 8 8 11 14 15 16 17 17 17 16 15 16 18 18 19 18 17 16 14 14 16 17 16 16 17 19 21 20 18 18 21 20 15 12 12 13 17 18 17 17 17 15 13 12 14 16 17 18 18 18
5 5 6 6 4 2 3 5 7 8 10 9 8 9 12 13 10 7 11 12 11 12 13 13 14 16 17 16 16 15 14 13 13 13 11 9 9 8 8 10 12 12 14 15 16 17 17 16 16 16 18 20 21 20 19 18 17 18 18 17 16 18 20 21 21 20 18 17 18 17 15 14 15 17 17 17 18 18 17 16 14 14 16 17 17 16 16
5 4 4 3 3 4 2 5 7 7 7 7 4 5 9 12 10 5 10 11 11 14 17 17 17 19 19 17 16 15 14 13 13 13 11 10 10 9 9 10 11 11 12 13 15 16 16 16 16 16 18 19 19 18 19 20 20 19 19 18 17 18 20 19 19 18 16 15 16 15 13 12 12 14 14 15 17 17 17 17 17 17 17 19 20 18 16
4 3 2 1 3 4 3 7 9 7 5 5 4 3 5 9 10 6 7 10 12 15 17 19 20 20 18 14 12 12 13 13 13 14 13 12 12 12 12 12 12 12 11 11 11 11 12 12 13 15 17 18 18 17 18 19 20 18 17 17 16 16 17 16 15 15 16 16 16 16 15 13 13 14 14 14 15 15 16 17 18 18 18 19 21 21 18
4 5 3 2 2 1 2 7 12 11 8 6 5 2 3 7 11 9 2 7 11 14 17 20 20 15 12 8 7 10 13 13 14 16 15 14 15 16 16 15 15 15 14 14 13 11 10 10 9 9 11 13 15 16 16 17 17 15 15 15 15 15 15 14 14 15 16 16 16 17 17 15 15 16 17 16 15 14 14 14 13 15 16 16 17 18 18
5 5 5 3 1 2 3 8 11 13 10 7 3 2 2 7 9 9 5 2 9 13 16 19 15 10 7 6 7 11 14 15 16 17 17 17 17 17 17 17 18 17 16 17 17 16 15 14 12 11 9 9 10 12 14 14 13 13 13 14 14 13 13 13 14 14 14 14 14 14 13 12 12 14 15 15 14 13 13 11 10 11 11 10 11 12 13
5 5 3 1 2 3 1 6 7 11 10 5 2 3 1 6 7 5 5 3 5 13 16 16 12 6 4 9 13 15 15 15 16 17 18 18 18 18 18 18 19 18 17 17 17 16 16 16 15 14 13 13 12 13 13 12 11 12 13 13 12 11 11 11 11 11 11 10 10 10 10 10 10 10 10 11 12 11 11 9 8 7 6 5 5 5 6
5 6 4 1 4 4 7 8 7 10 10 1 2 1 1 5 5 1 1 5 3 5 5 3 2 0 8 17 20 19 18 17 16 17 18 18 18 19 18 17 17 17 17 18 18 17 16 15 14 14 15 17 17 16 15 15 15 15 14 13 12 12 12 12 12 11 11 10 11 11 11 10 9 8 7 8 8 7 6 4 3 3 5 6 4 3 4
2 3 1 2 4 6 15 13 8 9 8 3 2 2 3 7 8 3 3 7 10 10 10 9 8 3 16 25 25 21 21 20 19 18 18 18 18 18 17 16 16 16 16 17 17 16 15 14 14 14 16 18 19 17 16 16 16 16 15 14 14 14 15 16 15 15 14 13 13 12 12 12 11 11 11 9 9 8 8 8 9 7 7 7 5 4 4
2 2 3 3 3 7 18 15 7 7 5 2 2 4 6 13 14 7 6 10 8 6 8 6 4 10 19 23 24 24 22 21 20 20 19 18 17 16 15 16 15 15 16 16 15 14 13 13 14 14 15 16 17 16 17 17 16 15 15 16 16 15 15 15 15 15 15 14 12 11 11 11 10 10 9 7 7 7 7 8 9 8 7 6 4 3 3
2 1 2 3 1 6 15 13 7 7 8 7 5 5 6 11 14 14 11 8 6 4 6 7 12 18 21 22 23 24 22 21 21 20 18 17 17 16 16 16 15 15 15 15 14 13 11 12 13 12 12 13 13 13 14 15 15 14 14 15 15 15 15 14 14 14 12 10 10 9 8 8 7 7 7 5 5 5 5 5 6 6 6 6 4 3 3
4 4 3 4 5 8 12 13 11 10 11 10 8 7 8 8 10 15 17 14 12 12 13 14 15 18 21 23 24 22 21 22 21 20 18 18 17 17 16 15 14 14 14 13 12 11 11 11 11 10 10 11 11 11 11 10 10 11 11 11 10 11 12 12 12 11 9 8 8 7 7 6 5 6 7 5 4 5 5 5 5 5 6 7 5 3 3
9 9 7 7 9 11 11 12 13 13 12 12 11 10 10 9 8 11 14 17 18 19 19 19 19 19 21 23 23 21 20 20 19 18 18 18 17 17 17 15 14 13 13 13 12 11 10 9 9 9 9 9 9 9 9 9 8 8 8 7 6 7 8 8 9 9 7 7 7 7 6 5 4 6 6 3 2 4 5 4 4 5 5 5 5 4 3
5 5 6 8 11 12 11 11 13 13 13 13 13 12 10 9 11 12 10 12 15 17 18 20 22 23 22 22 21 20 20 20 18 17 18 18 16 16 16 15 14 13 13 13 12 12 11 9 7 7 8 8 8 7 7 7 7 7 6 6 6 6 7 7 8 9 7 4 5 7 8 6 4 6 6 4 3 5 6 4 4 5 5 4 4 4 3
4 5 9 11 13 15 14 13 13 13 13 13 13 13 11 9 11 13 12 10 10 13 17 21 23 23 21 18 18 18 19 19 18 18 17 17 16 16 16 15 14 13 12 11 10 10 10 9 8 7 7 8 9 8 6 5 7 7 7 7 6 6 7 8 7 8 7 4 3 4 6 6 7 7 7 6 5 8 8 6 4 5 6 6 6 5 4
5 6 9 10 11 12 13 14 15 15 14 13 13 13 13 11 9 10 11 11 11 11 14 17 20 23 22 20 19 19 18 19 21 20 18 16 16 15 15 14 13 12 10 9 7 7 7 8 8 7 7 7 8 7 6 5 6 7 7 7 7 6 6 6 5 6 6 6 4 2 3 6 8 8 8 7 5 6 6 5 5 7 6 5 6 7 7
4 5 7 8 8 7 9 12 14 15 15 14 13 12 12 13 11 10 10 10 9 10 11 12 14 19 21 21 22 21 19 20 22 21 19 18 18 16 15 14 12 11 9 8 7 6 6 7 7 7 7 7 6 6 5 4 5 6 6 7 7 5 4 4 3 4 4 4 6 6 3 4 6 8 9 9 7 7 7 7 7 8 8 7 7 8 8
4 5 9 11 9 9 9 10 12 14 15 16 16 14 12 12 12 11 12 11 9 9 10 9 10 13 15 15 16 17 17 18 18 16 14 14 15 15 14 12 11 10 9 8 7 6 6 8 8 8 7 6 6 5 5 5 5 6 7 8 7 6 5 5 5 6 4 4 7 9 7 5 5 6 9 11 11 10 10 10 10 11 12 12 12 12 12
7 5 7 9 9 10 11 11 13 14 14 15 16 15 13 12 11 11 11 11 10 8 7 6 7 9 10 9 10 11 12 13 14 13 11 10 10 11 11 10 10 9 8 7 6 6 7 8 9 9 8 8 7 6 5 5 7 9 10 9 8 8 8 8 9 10 7 6 7 9 10 9 6 5 6 7 8 8 8 9 9 8 8 10 10 11 12
9 6 7 9 10 10 11 12 13 13 12 14 15 15 14 13 11 11 11 10 10 8 7 6 6 7 8 8 8 8 8 10 11 13 12 11 10 10 9 10 10 9 7 7 6 7 8 8 9 9 8 8 8 7 7 6 8 10 11 10 10 10 8 6 9 10 8 6 5 7 9 8 7 6 4 3 5 6 6 7 6 4 4 4 4 5 6
10 8 8 10 9 7 8 11 12 12 12 13 13 14 14 13 12 12 12 11 9 8 8 7 5 6 7 7 6 6 7 8 10 12 13 12 12 11 10 10 11 10 7 6 6 7 8 8 8 8 8 8 8 8 8 8 8 9 9 9 8 6 4 5 7 9 9 7 6 7 7 6 5 3 3 4 5 5 6 6 6 6 7 7 8 8 8
10 8 8 8 8 8 9 10 10 11 11 11 11 11 11 11 12 12 11 10 10 9 8 7 5 4 5 5 4 4 6 8 10 12 13 13 13 12 11 11 11 11 9 7 7 9 9 9 9 9 9 9 9 9 8 9 9 9 8 7 6 5 4 4 4 5 4 4 5 6 7 7 7 4 2 4 6 5 4 6 7 8 9 8 8 9 10
8 6 5 7 9 9 9 9 9 9 9 9 9 9 8 8 10 11 10 9 8 8 9 8 7 5 3 3 3 5 7 9 10 11 13 13 13 14 13 13 12 12 12 12 10 10 11 11 11 12 12 11 11 10 10 9 9 8 8 7 5 5 5 5 5 5 4 5 6 7 7 6 8 8 6 4 5 5 5 6 6 8 9 9 9 9 10
9 8 9 10 11 10 9 8 8 8 9 9 8 8 7 6 7 8 8 7 7 7 8 7 6 5 4 2 1 2 4 7 10 11 12 13 15 16 17 16 15 14 14 15 14 14 13 13 14 15 14 13 12 12 11 10 9 9 8 7 5 3 4 4 4 4 4 5 6 6 6 5 6 8 8 6 5 4 4 5 5 5 7 9 10 10 10
9 9 10 10 9 8 7 7 6 7 7 7 6 7 8 6 5 5 6 5 5 6 6 5 5 4 4 4 3 2 1 2 5 8 9 12 15 16 17 18 19 18 18 17 18 18 17 17 18 17 16 14 14 13 12 11 11 10 9 7 6 5 4 3 2 2 2 2 3 3 4 5 5 6 6 5 4 4 4 5 5 5 5 7 8 9 10
9 9 8 8 8 7 6 5 4 5 6 6 5 6 7 7 5 5 4 3 3 3 3 3 3 3 3 3 3 3 2 3 3 4 5 7 10 14 17 21 22 22 21 20 21 21 20 20 20 19 18 16 16 16 15 14 12 11 9 8 8 8 6 4 3 2 1 2 2 3 3 3 3 3 4 4 4 5 5 5 6 6 6 6 6 7 7
9 8 7 6 6 6 7 5 3 3 4 5 5 5 6 5 5 4 4 3 3 3 2 2 2 2 2 4 5 5 5 5 4 4 5 6 7 10 15 20 22 21 21 22 24 25 24 22 23 23 21 19 19 19 17 16 14 13 11 10 10 9 8 6 5 3 2 3 3 3 3 3 3 4 5 6 6 5 5 5 6 6 6 6 7 9 11
8 7 7 7 5 5 6 6 4 4 6 5 4 4 4 4 4 4 4 3 3 3 3 3 4 4 4 5 6 6 7 7 6 6 6 6 8 9 11 15 18 21 23 24 26 27 26 24 24 26 25 22 21 20 19 17 16 15 14 13 12 11 9 8 7 5 5 5 5 5 5 6 7 7 7 6 7 7 7 6 6 6 6 6 9 13 14
5 5 8 8 6 4 6 8 6 5 5 3 3 3 3 4 4 4 4 4 5 5 5 6 6 6 6 6 7 8 8 8 8 8 8 7 8 10 11 13 17 20 23 25 27 27 27 25 25 26 28 27 24 22 20 19 17 15 14 14 13 12 11 10 8 7 7 6 6 7 7 8 9 9 8 7 6 7 7 7 7 7 6 6 9 13 14
6 7 9 9 8 8 9 9 7 4 3 2 3 4 4 5 5 6 6 7 7 7 7 8 9 8 8 9 9 9 10 10 10 10 10 10 10 11 12 14 16 19 23 27 28 28 29 29 27 26 27 29 28 24 21 20 18 16 16 15 14 14 13 12 10 10 9 8 8 9 9 8 8 9 10 10 9 8 7 6 7 8 7 6 9 12 13
8 9 9 9 8 7 6 6 5 3 2 2 3 4 5 5 6 7 7 7 8 8 9 9 10 10 10 10 11 11 12 12 12 12 12 12 13 13 14 15 16 17 21 25 27 28 30 30 28 26 26 27 26 23 21 20 19 19 19 19 18 17 17 15 13 12 11 10 10 10 10 9 9 9 11 12 12 11 9 8 7 7 7 6 7 9 11
8 9 9 8 7 6 5 4 3 2 1 2 3 4 5 6 6 7 7 7 8 8 9 9 10 10 10 11 11 12 13 13 14 14 14 15 15 15 16 17 18 18 20 22 23 25 28 28 26 26 27 26 25 24 22 21 20 19 20 21 21 20 19 18 17 15 14 14 13 12 11 11 12 12 12 12 11 10 9 8 7 7 7 6 6 7 8
7 8 8 8 7 6 5 3 1 1 1 2 3 4 5 5 6 7 8 8 8 9 9 9 10 11 11 12 12 13 13 13 14 15 16 16 17 17 18 19 19 19 20 21 21 21 23 25 26 27 28 28 27 26 25 25 24 22 22 23 23 21 19 18 17 16 16 16 15 14 13 12 11 10 9 10 9 8 8 8 8 8 8 7 7 7 8
6 6 6 5 5 4 3 2 1 0 1 2 4 4 5 6 7 8 8 9 9 9 9 10 11 12 12 13 14 14 14 14 14 16 16 17 18 19 21 22 22 21 21 22 22 21 22 23 24 26 28 29 29 28 26 25 24 24 23 21 20 19 17 16 15 16 15 15 14 14 13 12 10 9 8 8 7 7 8 9 10 12 13 12 10 9 7
5 5 4 4 4 3 2 1 1 1 2 3 4 5 6 6 7 9 9 10 10 11 11 12 13 13 14 14 14 15 15 15 16 16 16 17 19 20 22 24 24 22 22 22 23 23 24 24 23 25 27 28 29 29 25 22 22 23 22 18 16 16 16 16 15 15 15 15 14 14 13 12 10 10 10 9 8 8 8 8 9 10 10 10 9 8 7
6 4 3 2 2 2 1 0 1 2 3 4 5 6 7 8 9 10 11 12 12 12 13 13 14 15 15 15 16 17 17 18 19 20 19 19 20 20 21 22 21 20 20 21 22 23 25 26 26 26 26 25 26 29 27 24 23 24 22 17 16 17 18 18 17 15 14 15 15 14 12 12 11 10 10 10 9 8 8 8 7 7 6 6 6 7 7
6 5 3 2 1 1 1 1 2 3 4 5 6 7 8 9 10 11 12 12 13 13 14 14 14 15 16 17 17 18 18 18 19 20 21 21 21 20 21 21 20 18 19 20 21 22 25 28 28 29 28 26 27 30 31 30 28 26 23 19 18 18 18 18 18 16 14 14 13 12 10 10 10 9 10 10 9 9 8 8 8 7 7 7 7 6 6
6 5 4 3 3 3 3 2 3 4 5 6 7 8 9 10 11 12 12 13 14 15 15 14 14 15 15 15 16 17 17 16 16 17 19 20 20 20 21 23 23 21 20 21 22 22 24 27 29 31 32 30 29 31 33 33 30 27 23 21 19 18 16 16 16 16 15 14 13 11 10 10 10 9 8 8 8 8 8 8 8 7 6 6 6 6 5
6 5 5 4 4 4 3 3 3 4 6 7 8 9 10 11 12 12 13 13 14 14 14 14 13 13 14 14 15 15 15 15 15 16 17 18 19 19 19 21 23 24 24 25 26 26 25 25 26 29 31 32 33 34 33 32 30 28 23 19 17 16 16 16 16 15 14 13 12 11 11 10 9 8 8 8 8 7 7 6 6 6 6 6 6 5 5
7 6 5 4 3 3 2 3 4 5 6 8 9 10 10 11 11 11 11 12 13 12 12 12 12 12 13 14 14 14 15 15 16 17 18 19 21 20 19 20 22 23 25 26 28 29 29 30 31 30 28 26 30 34 33 31 29 26 21 18 17 18 17 17 16 14 12 11 11 10 10 10 10 8 8 8 8 8 8 8 7 7 6 6 6 5 4
7 6 5 4 3 2 1 2 3 5 6 7 8 9 9 9 10 9 9 10 11 11 11 12 12 12 13 13 14 15 16 16 17 18 19 20 21 21 21 21 23 24 25 25 27 29 30 31 33 32 28 24 24 30 30 27 25 23 21 20 20 19 18 18 17 13 10 9 10 9 9 8 8 7 7 8 9 10 11 11 11 10 9 7 6 6 6
7 7 5 4 3 1 1 2 3 4 5 7 8 9 10 9 9 9 9 9 10 11 12 12 13 13 14 14 15 15 16 17 17 17 17 17 18 18 19 19 19 21 22 23 25 28 29 28 28 29 27 23 23 27 29 27 25 25 25 26 25 21 18 16 15 13 11 10 10 10 11 10 9 7 7 8 10 10 9 9 9 9 8 7 6 6 6
8 7 6 5 3 2 1 1 2 3 5 6 7 8 9 9 9 9 9 9 9 10 11 12 12 12 13 13 14 14 15 16 16 16 16 17 17 17 18 18 18 20 21 21 23 25 26 24 22 23 22 21 23 27 29 28 27 26 26 25 24 23 21 19 18 18 15 11 7 7 9 10 9 7 6 6 7 7 6 6 6 6 6 6 6 6 7
8 7 6 6 4 3 2 2 2 2 4 5 7 8 8 9 9 9 9 10 10 10 10 10 10 11 10 10 11 12 12 13 13 14 16 17 17 17 17 18 19 21 22 20 20 20 21 19 17 16 16 20 24 26 27 29 29 27 26 25 24 23 21 18 16 14 11 7 4 4 5 4 4 5 6 6 5 6 6 6 6 7 8 9 8 7 7
8 7 7 7 5 4 2 1 1 2 2 4 6 7 8 8 8 9 10 10 10 10 10 9 9 9 9 9 9 9 9 10 11 13 15 16 16 16 16 17 17 18 17 15 15 16 16 16 16 16 19 23 26 27 27 27 26 24 25 25 23 20 17 14 11 10 8 7 7 8 8 6 5 6 8 8 8 9 9 8 8 9 11 11 10 9 9
8 8 8 7 6 6 4 2 0 0 1 3 4 5 7 7 7 8 9 10 10 10 10 10 9 9 10 10 9 9 9 9 10 11 13 13 13 14 14 13 12 12 10 8 12 14 14 13 15 17 19 22 24 24 24 21 18 17 18 18 15 13 12 11 10 9 9 11 11 11 9 7 8 9 11 11 10 11 10 10 9 10 10 10 9 9 9
8 8 8 7 7 7 7 4 2 1 1 1 2 3 5 6 6 6 8 9 10 9 9 10 9 9 9 11 11 10 10 10 9 8 9 9 10 11 11 10 9 9 9 9 12 13 13 14 16 19 20 20 20 19 18 15 12 12 13 14 12 12 13 14 13 12 12 13 12 11 9 8 10 12 13 12 10 10 10 10 10 10 10 9 10 10 10
Wind_Direction
267 272 270 270 276 273 267 261 230 224 247 256 240 236 245 251 176 146 152 140 132 144 149 146 155 165 172 166 149 159 184 171 164 169 170 176 182 185 187 185 179 171 166 165 166 164 165 175 182 182 186 197 207 206 194 187 190 191 190 193 195 197 201 202 208 211 204 200 207 211 212 219 218 212 212 217 220 226 234 233 224 226 240 244 232 231 241
272 262 248 247 259 258 263 271 247 216 221 239 244 240 244 250 149 130 135 127 113 127 143 137 141 147 147 143 146 162 175 162 156 162 161 165 175 183 186 183 185 193 189 179 177 175 168 166 175 182 184 189 198 199 188 190 197 195 193 196 195 196 203 205 207 213 210 206 210 211 210 214 217 213 212 218 225 227 228 231 233 233 237 247 252 252 254
274 268 252 237 238 246 258 273 275 252 225 231 240 256 271 273 167 130 124 114 110 122 130 123 122 129 133 134 138 148 158 156 151 148 147 154 163 176 184 180 179 192 202 202 198 196 195 190 186 186 183 186 192 192 193 202 208 207 202 201 203 205 210 212 212 213 215 214 212 210 207 208 210 206 204 210 219 221 219 219 226 233 236 238 240 246 255
269 274 264 247 241 242 245 263 312 358 348 304 339 8 1 349 31 128 124 118 125 131 127 123 124 131 136 134 129 130 137 138 134 130 130 134 138 147 165 172 173 181 192 199 203 206 214 221 218 206 192 187 189 189 196 204 211 217 214 209 212 215 214 216 216 217 227 230 220 212 212 215 215 209 206 210 214 215 217 217 217 222 231 237 234 233 240
274 273 280 276 261 245 233 277 350 5 3 8 15 21 20 9 17 110 124 115 124 131 130 130 134 136 135 135 132 128 117 104 106 114 114 112 116 124 139 156 167 173 176 183 191 195 201 211 217 212 205 201 197 195 202 206 206 212 212 208 209 212 215 216 209 205 223 231 226 218 212 212 220 222 219 221 223 224 228 228 223 220 221 230 235 236 237
274 280 292 283 262 246 263 344 358 10 20 25 23 26 23 10 17 76 108 109 118 126 126 128 134 131 128 127 122 118 112 105 104 109 108 108 112 119 138 159 171 176 177 180 184 186 188 193 200 203 204 208 209 206 207 207 204 206 209 211 208 206 211 215 210 208 220 227 229 234 230 222 229 234 233 232 233 236 240 239 236 230 224 226 234 239 242
273 287 280 255 240 273 311 345 14 37 41 36 42 47 33 14 18 78 116 117 120 127 125 127 130 124 120 118 112 112 116 116 114 111 109 117 123 125 144 168 180 185 186 189 190 193 196 199 202 203 203 205 207 207 205 205 205 207 212 213 207 203 208 211 210 209 215 224 231 237 239 236 239 242 240 239 240 243 244 243 244 242 234 230 233 237 241
256 269 272 248 255 285 319 22 24 37 41 27 45 71 39 14 9 65 117 121 127 129 126 128 125 118 115 113 109 114 119 117 118 120 120 126 129 126 130 147 166 178 185 192 196 199 203 208 213 214 211 206 206 207 207 207 204 203 206 206 200 202 208 209 207 206 211 224 231 233 237 238 238 242 242 240 240 241 245 245 244 245 242 236 236 239 240
258 258 260 178 258 288 5 15 359 10 40 29 27 72 48 20 13 38 114 135 134 129 128 127 120 114 112 106 104 118 126 123 121 122 122 123 122 119 119 124 136 150 162 173 183 192 198 205 214 218 218 217 214 212 209 209 205 200 201 203 200 201 207 211 212 210 214 224 228 231 236 235 231 236 239 240 241 241 245 245 241 239 240 238 239 243 244
255 252 231 181 208 329 338 315 330 353 21 46 41 25 58 35 14 9 64 142 133 127 131 131 128 126 119 108 116 132 133 129 126 123 121 120 116 113 112 111 114 121 127 132 137 144 151 157 169 188 203 211 211 209 207 209 207 202 202 207 207 207 209 214 220 219 217 221 225 229 233 233 232 236 239 242 246 245 245 248 245 241 241 242 245 248 248
238 250 245 241 213 137 237 282 318 339 354 40 55 283 14 31 5 356 359 121 141 140 141 140 146 153 136 125 142 144 139 137 135 131 127 124 118 113 110 108 108 109 111 113 114 116 118 119 119 125 143 166 178 182 187 195 196 190 187 189 193 197 198 200 206 208 206 209 216 222 224 219 219 227 234 238 241 241 241 245 249 247 242 242 249 253 251
234 244 241 291 67 90 314 298 314 321 331 35 104 238 339 10 358 15 6 312 177 159 158 159 165 175 151 144 147 147 144 135 127 126 127 126 122 118 115 112 109 107 106 105 105 105 105 106 107 112 119 126 132 139 146 152 156 154 150 152 161 169 172 175 181 185 182 178 183 193 194 187 187 198 214 221 223 227 229 232 240 240 223 224 248 248 239
228 238 232 150 94 58 354 335 330 319 314 331 129 226 316 356 357 54 270 320 10 88 114 144 250 228 134 138 140 142 141 132 121 119 122 121 119 118 117 115 111 109 108 106 104 101 101 105 108 112 116 118 118 122 128 130 128 126 125 128 132 136 137 138 141 146 150 153 159 163 163 167 173 171 168 182 195 202 202 188 187 196 182 184 201 193 188
240 251 280 100 107 21 355 346 346 341 318 228 140 25 54 64 56 49 14 29 37 40 36 15 347 55 126 133 135 133 131 129 126 122 118 116 115 113 112 111 110 110 108 106 103 100 102 109 114 116 120 122 123 126 130 127 122 121 123 125 128 133 134 132 128 126 126 133 142 145 141 142 149 147 138 138 147 152 148 136 128 125 135 148 148 127 135
25 54 36 75 127 8 0 356 356 6 10 136 98 29 69 94 98 96 60 60 65 49 42 48 80 115 126 131 129 125 125 126 124 121 118 116 114 111 109 109 109 108 105 102 100 100 105 116 122 123 124 124 127 132 132 128 125 124 123 123 127 133 135 132 129 125 123 123 125 126 129 130 130 131 129 121 117 118 121 125 126 122 119 121 111 96 99
5 61 45 53 87 19 17 19 21 31 48 70 73 62 78 97 117 132 129 120 126 102 81 109 128 126 128 130 125 124 128 129 125 123 122 119 116 114 111 109 107 105 105 104 104 107 112 120 124 129 133 131 132 136 135 133 133 133 132 131 130 131 131 129 125 123 125 127 120 113 116 121 116 114 113 99 83 87 95 106 114 118 114 103 86 79 79
62 75 65 51 51 44 38 36 36 40 46 46 52 78 85 80 107 128 133 139 151 150 142 140 136 129 128 130 131 132 132 129 126 126 124 122 119 116 113 112 113 114 117 119 119 120 122 123 122 126 131 132 133 135 136 139 141 143 144 144 140 134 131 128 125 124 125 125 118 103 93 95 96 92 89 86 85 82 77 86 106 121 118 114 114 105 82
90 71 59 56 55 57 53 46 44 45 44 41 47 67 79 81 97 115 123 129 135 143 147 145 144 142 138 134 133 133 129 125 125 125 121 119 118 116 115 118 123 127 129 126 124 122 121 123 127 128 128 131 133 135 136 139 146 151 151 148 144 138 133 127 120 116 113 118 128 127 113 104 97 91 87 82 81 77 66 66 86 104 115 127 139 137 135
123 80 72 69 60 59 59 59 59 56 50 51 56 61 69 93 111 109 109 121 130 138 144 144 144 147 144 137 133 134 132 128 127 126 122 119 120 123 124 124 125 128 126 123 123 124 123 124 130 132 132 131 125 120 124 137 149 153 150 150 152 146 141 135 123 119 128 153 156 136 125 125 132 130 136 157 155 144 152 142 100 95 108 118 102 84 92
109 108 104 92 76 65 56 57 66 67 60 59 63 64 68 92 118 121 116 111 113 124 135 140 143 143 140 133 127 127 131 131 130 128 126 126 130 133 132 130 129 129 128 126 128 129 129 132 136 135 132 130 122 118 127 151 159 156 152 150 151 147 144 145 145 148 156 161 136 122 137 163 177 172 175 183 166 159 175 186 163 146 152 153 145 137 134
111 127 132 124 105 82 61 56 65 70 70 67 64 66 72 82 105 125 118 101 97 112 123 128 133 137 141 144 142 139 142 144 142 140 141 144 146 143 140 139 138 133 128 125 124 126 129 132 136 137 137 136 135 137 150 165 162 160 160 151 143 141 144 151 166 167 144 117 104 127 191 202 194 188 195 205 197 187 198 211 206 199 198 194 193 199 192
132 121 115 114 111 91 64 56 60 66 73 76 71 66 68 78 97 124 126 107 108 125 125 119 125 132 138 147 152 154 157 156 154 155 159 157 155 155 154 153 148 138 130 125 127 134 138 136 137 139 140 142 145 148 155 159 158 163 160 144 130 118 109 110 119 123 122 138 156 158 182 241 226 211 213 220 223 219 217 218 221 226 232 233 233 238 234
94 86 100 107 110 102 86 71 64 63 66 71 74 70 66 71 89 113 124 120 120 131 133 131 137 141 143 147 153 158 163 165 166 169 168 161 161 166 166 164 162 154 143 136 136 139 142 143 142 139 138 139 140 141 145 151 155 153 138 123 115 116 127 142 141 128 135 194 184 169 177 214 227 220 222 230 239 244 243 241 242 244 247 246 247 253 256
78 63 98 114 111 100 94 83 74 71 68 68 72 73 69 69 76 90 106 116 120 123 124 125 135 150 158 161 157 157 162 170 176 177 172 170 178 179 174 177 183 173 153 144 147 148 149 147 141 136 135 134 131 133 141 148 151 147 135 130 144 167 184 193 179 163 169 197 193 190 202 218 234 246 239 237 249 257 260 265 267 263 256 251 251 256 261
97 80 94 108 109 106 100 88 78 76 75 74 76 76 73 72 72 74 82 94 103 105 103 106 126 148 159 163 167 165 163 172 181 182 177 178 184 182 176 183 193 188 168 154 156 160 160 155 146 140 137 133 130 132 136 146 156 158 154 161 179 193 204 204 190 193 211 230 227 220 220 223 241 256 247 253 291 302 300 299 307 324 334 327 315 302 295
116 115 111 108 104 99 96 88 78 73 73 76 79 82 81 80 77 74 73 75 79 84 86 92 113 145 157 164 177 180 178 184 191 190 187 187 187 185 183 189 201 207 196 174 169 174 174 168 160 153 145 141 143 142 141 148 158 163 167 176 189 199 203 188 187 205 228 245 252 254 244 227 226 230 210 228 268 305 324 328 330 335 339 345 346 340 332
122 129 127 117 101 84 82 86 80 71 70 72 74 77 82 85 85 83 80 76 73 72 73 75 86 126 157 167 179 193 201 204 201 199 201 201 197 194 192 193 204 218 221 207 189 187 191 190 179 169 164 163 161 156 153 153 152 154 161 166 166 172 182 183 185 198 212 220 235 251 250 229 212 205 211 229 233 252 294 315 317 316 321 328 329 324 324
118 125 131 129 120 105 94 89 84 75 69 67 67 70 78 87 90 87 81 77 72 65 62 64 67 76 108 159 187 204 210 209 207 212 216 213 207 204 199 194 199 212 220 218 207 200 203 203 194 185 184 182 175 168 164 160 153 151 149 141 131 140 157 166 173 177 188 212 234 249 256 236 213 207 213 222 224 236 263 280 287 296 303 307 307 308 315
108 107 109 116 120 118 109 98 89 78 67 60 61 61 61 71 88 86 76 74 75 64 51 48 52 55 57 67 116 201 208 209 215 222 221 217 215 213 207 201 199 204 212 219 219 215 212 209 206 202 198 191 185 180 177 172 167 162 151 136 133 150 151 153 172 192 211 234 249 260 265 255 231 219 217 219 223 232 255 269 271 273 284 292 297 303 311
115 116 118 121 126 126 119 108 97 83 65 52 52 57 54 55 71 77 70 73 80 71 52 37 32 35 38 39 33 14 309 247 242 237 227 223 224 222 215 207 203 202 208 220 227 226 219 213 213 215 211 202 195 194 191 185 181 179 170 161 172 187 174 149 158 188 227 259 270 267 259 253 249 238 226 225 237 242 247 256 257 251 258 275 292 305 313
123 121 124 128 133 134 126 118 115 99 71 49 46 55 52 47 51 56 55 59 63 57 45 38 33 26 22 11 349 329 329 321 293 270 254 244 236 226 217 211 209 210 214 219 225 228 225 219 219 222 221 212 204 203 202 197 192 193 191 185 185 187 184 178 182 193 232 272 281 282 271 258 251 249 243 239 244 250 254 258 259 259 257 261 269 277 280
132 130 133 136 144 146 135 122 113 99 79 64 54 48 39 34 36 37 33 31 22 6 355 357 349 334 323 315 309 311 319 319 304 287 278 273 263 241 224 218 219 223 224 223 224 228 232 231 228 227 227 222 215 213 211 207 203 202 203 201 200 198 196 198 205 211 220 237 246 256 254 232 215 222 236 242 238 236 244 253 255 256 255 255 255 252 247
155 152 152 153 166 177 158 138 112 81 73 65 45 29 19 16 21 21 13 6 355 342 333 322 311 304 299 293 295 299 304 307 303 293 280 272 270 265 248 235 231 230 228 226 225 227 232 235 233 230 230 229 225 222 220 217 214 214 215 215 216 215 212 210 213 218 219 221 230 234 231 228 225 222 226 237 240 234 232 236 243 249 249 247 251 253 253
156 137 138 137 132 124 123 122 110 84 67 43 11 6 0 355 355 349 340 337 329 320 316 311 300 291 286 288 291 290 289 290 292 291 288 280 272 265 258 250 240 232 229 230 229 227 229 232 233 233 236 236 231 226 225 225 223 222 222 224 227 228 226 221 220 227 228 222 226 233 233 235 237 233 227 232 241 240 236 233 235 240 241 244 257 265 268
130 116 120 121 109 93 94 100 98 81 54 7 347 344 335 331 332 327 322 322 317 311 308 306 301 295 290 288 287 284 282 282 281 280 281 282 280 273 266 259 249 235 231 234 236 235 232 228 222 225 234 237 234 230 229 230 231 230 230 231 232 236 241 238 232 235 236 227 227 238 246 248 246 238 228 224 224 225 230 235 240 243 240 241 260 272 277
136 127 122 116 108 100 96 95 91 80 48 352 330 319 313 312 313 312 311 309 305 304 304 301 300 298 294 289 286 283 281 279 278 278 277 275 275 274 272 269 263 249 240 240 243 246 244 235 223 218 224 230 233 232 229 228 230 231 232 233 231 233 242 246 243 241 238 227 224 234 243 246 242 235 233 235 235 232 233 235 235 238 236 233 247 270 285
136 132 129 123 117 112 108 104 97 81 11 324 310 305 306 306 304 304 305 303 301 302 301 297 295 293 290 287 285 282 279 277 276 276 275 274 273 272 270 270 269 263 256 251 250 251 254 252 243 234 228 228 232 236 236 234 231 226 224 227 228 230 236 241 243 241 237 228 223 225 230 238 244 244 246 253 253 240 232 233 232 234 239 239 238 249 263
136 129 130 130 125 117 113 112 99 22 329 312 306 303 301 301 301 302 302 301 300 300 299 296 294 290 287 286 283 279 277 275 274 273 272 271 272 271 268 267 266 266 264 263 259 255 256 258 254 244 231 223 225 234 240 241 236 228 223 227 232 232 230 229 232 235 234 231 229 226 223 229 240 243 244 256 258 239 222 223 223 221 224 228 232 241 249
146 136 129 127 126 121 121 128 118 329 295 291 300 301 299 301 303 302 301 300 299 299 299 298 296 292 289 286 283 280 278 277 275 275 274 270 268 268 268 266 266 265 265 265 263 260 257 255 255 250 240 228 225 231 240 242 235 224 218 221 226 226 220 216 219 223 221 221 226 229 224 221 225 225 222 230 237 225 214 218 226 231 235 240 245 252 258
162 154 140 137 141 142 143 151 184 282 288 295 301 302 302 304 304 302 301 300 299 299 299 298 296 294 292 289 286 284 282 277 273 273 273 272 271 270 268 267 267 267 268 267 265 262 260 256 255 257 254 241 228 226 232 235 229 221 215 213 216 217 213 209 209 211 208 206 213 222 222 216 214 216 216 215 217 220 222 229 240 246 249 251 252 248 244
175 176 171 165 164 159 159 186 307 306 302 304 306 307 308 309 307 305 304 302 299 297 295 293 292 292 291 289 287 286 284 280 274 267 264 267 273 277 274 271 271 272 274 273 268 265 264 261 257 257 258 248 231 224 226 229 228 224 220 216 219 220 214 206 204 205 205 205 209 217 222 220 213 212 214 214 215 220 222 221 225 232 236 237 239 239 241
193 201 209 221 242 261 270 298 312 310 312 316 317 314 312 309 305 303 302 300 299 297 293 289 288 289 289 288 287 287 287 287 283 274 266 265 272 279 280 276 272 271 273 275 272 268 266 264 259 257 256 249 236 230 230 231 228 224 217 211 212 216 215 211 209 208 207 208 209 211 214 214 209 210 216 216 213 215 217 218 225 234 238 237 239 243 245
200 206 223 246 269 281 289 305 317 320 322 323 320 315 312 308 304 302 300 298 297 296 293 289 286 285 287 289 290 288 287 287 286 282 275 271 272 277 280 280 276 269 267 270 272 268 267 268 266 261 256 249 239 233 231 228 224 219 211 206 209 215 216 212 208 205 203 203 203 201 199 200 200 204 210 209 207 214 224 227 229 231 229 227 233 239 242
194 206 229 248 258 269 289 318 333 332 329 326 320 317 314 309 305 302 300 299 299 297 293 291 288 285 287 291 290 288 288 287 285 284 284 282 281 280 280 282 279 270 264 267 270 268 267 270 268 261 254 246 237 230 226 221 217 213 207 204 209 215 213 207 204 203 201 200 197 195 195 197 197 201 208 209 208 213 218 219 222 229 235 236 236 236 239
196 210 223 232 238 255 295 334 344 339 333 327 322 319 315 309 306 305 303 302 303 301 297 295 294 291 291 290 287 285 286 286 285 285 286 286 285 282 277 276 275 270 267 269 272 270 267 266 264 262 263 255 236 224 217 213 210 206 200 198 206 212 208 200 195 194 194 196 196 194 193 193 192 196 203 206 206 208 212 215 217 217 216 218 221 225 236
198 205 204 205 215 239 310 344 344 338 334 329 326 325 322 317 313 310 306 304 302 300 296 294 292 290 290 290 289 289 289 287 286 286 285 284 285 285 283 283 282 278 274 271 269 268 270 270 266 266 272 268 242 221 211 206 202 196 188 189 199 207 205 200 195 190 190 192 189 184 183 187 193 203 209 207 205 209 217 223 224 220 219 226 235 243 252
192 196 197 198 203 216 328 346 339 337 337 337 337 338 336 330 322 315 310 305 299 295 293 290 288 289 290 289 288 289 289 288 287 286 284 283 284 286 286 287 286 283 280 276 270 267 270 273 272 270 270 263 240 221 211 205 199 192 188 190 194 196 195 192 189 186 186 187 187 190 192 187 179 183 200 209 211 217 224 229 228 227 234 246 254 258 267
181 186 192 194 190 186 237 314 328 336 341 344 345 344 343 340 335 330 327 324 316 310 306 301 299 299 297 295 292 291 290 289 288 287 286 287 288 287 284 282 280 277 278 279 277 272 271 272 273 271 264 249 232 222 215 210 205 199 194 193 193 190 187 184 181 181 184 187 195 214 218 204 188 187 204 213 214 221 231 234 231 234 245 253 255 260 268
173 178 185 189 190 196 227 286 324 338 345 349 350 348 349 352 352 351 348 344 337 329 324 321 319 317 313 309 307 303 298 293 290 287 288 291 292 288 284 283 281 281 281 279 276 274 272 268 262 255 242 229 221 213 207 205 205 201 195 193 193 193 194 193 189 188 195 205 210 219 228 223 210 221 235 239 235 236 238 239 241 248 252 252 253 258 263
176 178 184 192 199 205 218 264 331 340 342 349 354 355 358 1 3 0 357 354 350 346 343 339 335 332 331 330 325 317 308 301 293 290 293 296 297 294 293 290 288 290 290 277 257 252 255 253 246 238 232 226 219 208 197 194 194 191 190 193 196 196 198 201 198 196 207 218 219 223 233 235 225 228 236 239 240 244 247 246 247 251 255 259 264 269 270
184 188 192 198 202 202 204 212 218 50 343 352 358 1 2 2 1 357 355 356 356 355 353 351 348 344 342 339 333 323 315 309 302 298 302 304 302 300 299 294 289 292 291 259 231 233 241 240 232 225 218 210 203 196 190 187 183 180 182 186 184 178 180 189 194 199 207 212 215 223 233 232 227 231 236 238 240 246 251 251 251 254 259 265 269 270 269
188 193 195 197 200 202 206 212 217 218 241 318 351 358 1 4 4 1 359 1 4 3 359 357 356 354 350 347 343 336 327 321 317 317 318 314 307 303 303 300 294 285 267 236 224 227 227 215 206 201 194 187 184 183 179 173 168 169 172 171 169 176 187 194 197 202 210 215 217 221 228 235 238 238 238 238 244 253 257 258 261 265 267 269 273 274 273